User: anonymous   Login
Location: Turtle Rock Observatory
(36.6913°N, 81.9708°W)
Time: 21:07:50
(UTC-04:00)
Language:

Lacrosse 5 rocket - Orbit

View from above orbital plane
View from above orbital plane
View from above satellite
View from above satellite

Ground track
Ground track

The orbit data is extracted from the following two-line orbital elements,

1 28647U 05016B   16148.02819743 0.00000900  00000-0  54621-4 0    07
2 28647  56.9950 142.7127 0118921 352.7014   7.2985 15.04277438    03
Epoch (UTC): 27 May 2016 00:40:36
Eccentricity: 0.0118921
inclination: 56.9950°
perigee height: 471 km
apogee height: 636 km
right ascension of ascending node: 142.7127°
argument of perigee: 352.7014°
revolutions per day: 15.04277438
mean anomaly at epoch: 7.2985°
orbit number at epoch: 0

The dashed part of the orbit path shows where the satellite is in the earth's shadow,  

DLR